NEWPRT Weather Reports


time (UTC)temp
C
wind
direction
speed
KPH
gust
KPH
rain 1hr
cm
rain 24hr
cm
rain mn
cm
humidity
%
barometer
mb
20260505213858 -17 128 0.0 6.4 0.00 0.10 0.10 64 1017.9
20260505213335 -17 18 0.0 6.4 0.00 0.10 0.10 63 1017.9
20260505212812 -17 131 1.6 6.4 0.00 0.10 0.10 63 1017.9
20260505212249 -17 147 3.2 3.2 0.00 0.10 0.10 58 1017.9
20260505211726 -17 37 1.6 6.4 0.00 0.10 0.10 64 1018.0
20260505211203 -17 26 0.0 6.4 0.00 0.10 0.10 65 1017.8
20260505210640 -17 23 1.6 6.4 0.00 0.10 0.10 65 1017.9
20260505210117 -17 21 0.0 6.4 0.00 0.10 0.10 66 1018.0
20260505205554 -17 42 0.0 6.4 0.00 0.10 0.10 65 1018.1
20260505205031 -17 0 1.6 6.4 0.00 0.10 0.10 65 1017.9
20260505204508 -17 57 0.0 6.4 0.00 0.10 0.10 67 1018.0
20260505203945 -17 49 0.0 6.4 0.00 0.10 0.10 65 1017.5
20260505203422 -17 35 0.0 6.4 0.00 0.10 0.10 67 1017.9
20260505202859 -17 0 0.0 4.8 0.00 0.10 0.10 66 1017.9
20260505202336 -17 47 0.0 4.8 0.00 0.10 0.10 66 1017.8
20260505201813 -17 0 0.0 0.0 0.00 0.10 0.10 69 1017.6
20260505201250 -17 0 0.0 0.0 0.00 0.10 0.10 69 1018.1
20260505200727 -17 350 0.0 6.4 0.00 0.10 0.10 66 1018.2
20260505200204 -17 324 0.0 6.4 0.00 0.10 0.10 68 1018.1
20260505195641 -17 0 0.0 0.0 0.00 0.10 0.10 69 1018.1
20260505195118 -17 0 0.0 4.8 0.00 0.10 0.10 69 1018.2
20260505194555 -17 22 0.0 4.8 0.00 0.10 0.10 69 1018.3
20260505194034 -17 50 1.6 4.8 0.00 0.10 0.10 69 1018.1
20260505193509 -17 124 0.0 3.2 0.00 0.10 0.10 69 1017.8
20260505192946 -17 0 0.0 0.0 0.00 0.10 0.10 71 1018.2
20260505192423 -17 0 0.0 0.0 0.00 0.10 0.10 72 1018.3
20260505191901 -17 0 0.0 0.0 0.00 0.10 0.10 73 1017.9
20260505191337 -17 0 0.0 0.0 0.00 0.10 0.10 69 1017.5
20260505190814 -17 0 0.0 0.0 0.00 0.10 0.10 72 1017.8
20260505190251 -17 0 0.0 0.0 0.00 0.10 0.10 74 1018.0
20260505185727 -17 0 0.0 0.0 0.00 0.10 0.10 75 1017.4
20260505185205 -17 0 0.0 0.0 0.00 0.10 0.10 76 1017.8
20260505184641 -17 0 0.0 0.0 0.00 0.10 0.10 76 1017.6
20260505184119 -17 0 0.0 0.0 0.00 0.10 0.10 75 1017.5
20260505183555 -17 252 0.0 0.0 0.00 0.10 0.10 78 1017.8
20260505183033 -17 0 0.0 3.2 0.00 0.10 0.10 76 1017.6
20260505182510 -17 0 0.0 3.2 0.00 0.10 0.10 77 1017.2
20260505181947 -17 82 0.0 3.2 0.00 0.10 0.10 79 1017.5
20260505181425 -17 0 0.0 0.0 0.00 0.10 0.10 80 1017.5
20260505180900 -17 0 0.0 0.0 0.00 0.10 0.10 78 1017.1
20260505180337 -17 0 0.0 0.0 0.00 0.10 0.10 81 1017.2
20260505175814 -17 0 0.0 0.0 0.00 0.10 0.10 81 1017.3
20260505175251 -17 0 0.0 0.0 0.00 0.10 0.10 81 1017.1
20260505174729 -17 0 0.0 0.0 0.00 0.10 0.10 82 1017.3
20260505174205 -17 0 0.0 0.0 0.00 0.10 0.10 82 1017.1
20260505173644 -17 0 0.0 0.0 0.00 0.10 0.10 82 1017.2
20260505173119 -17 0 0.0 0.0 0.00 0.10 0.10 81 1016.8
20260505172556 -17 0 0.0 3.2 0.00 0.10 0.10 81 1016.9
20260505172033 -17 0 0.0 3.2 0.00 0.10 0.10 83 1016.6
20260505171511 -17 47 0.0 3.2 0.00 0.10 0.10 84 1017.0
20260505170947 -17 0 0.0 0.0 0.00 0.10 0.10 84 1017.0
20260505170425 -17 0 0.0 0.0 0.00 0.10 0.10 83 1016.7
20260505165901 -17 0 0.0 0.0 0.00 0.10 0.10 79 1016.5
20260505165338 -17 0 0.0 0.0 0.00 0.10 0.10 79 1016.7
20260505164815 -17 0 0.0 0.0 0.00 0.10 0.10 80 1016.8
20260505164252 -17 0 0.0 0.0 0.00 0.13 0.10 80 1016.7
20260505163729 -17 0 0.0 0.0 0.00 0.13 0.10 78 1016.8
20260505163206 -17 0 0.0 0.0 0.00 0.13 0.10 77 1016.8
20260505162643 -17 161 0.0 0.0 0.00 0.13 0.10 78 1016.8
20260505162120 -17 0 0.0 0.0 0.00 0.13 0.10 77 1016.6
20260505161557 -17 0 0.0 0.0 0.00 0.13 0.10 76 1016.7
20260505161034 -17 0 0.0 0.0 0.00 0.13 0.10 77 1016.6
20260505160512 -17 0 0.0 0.0 0.00 0.13 0.10 77 1016.7
20260505153254 -17 0 0.0 0.0 0.00 0.13 0.10 82 1016.5
20260505152730 -17 0 0.0 0.0 0.00 0.13 0.10 84 1016.6
20260505152208 -17 0 0.0 0.0 0.00 0.13 0.10 85 1016.7
20260505151644 -17 0 0.0 0.0 0.00 0.13 0.10 86 1016.8
20260505151121 -17 0 0.0 3.2 0.00 0.13 0.10 84 1016.6
20260505150558 -17 0 0.0 3.2 0.00 0.13 0.10 84 1016.4
20260505140646 -17 0 0.0 0.0 0.00 0.15 0.10 84 1016.6
20260505140122 -17 0 0.0 0.0 0.00 0.15 0.10 82 1016.4
20260505130210 -17 0 0.0 0.0 0.03 0.13 0.10 83 1016.1
20260505124600 -17 0 0.0 0.0 0.00 0.13 0.08 83 1016.1
20260505124037 -17 0 0.0 0.0 0.00 0.13 0.08 83 1016.0
20260505123514 -17 0 0.0 0.0 0.00 0.13 0.08 83 1016.0
20260505122951 -17 0 0.0 0.0 0.00 0.13 0.08 83 1015.9
20260505122428 -17 0 0.0 3.2 0.00 0.13 0.08 83 1016.1
20260505121905 -17 0 0.0 3.2 0.00 0.13 0.08 83 1016.0
20260505121342 -17 177 0.0 3.2 0.00 0.13 0.08 82 1015.8
20260505120819 -17 0 0.0 0.0 0.00 0.13 0.08 82 1015.6
20260505120256 -17 0 0.0 0.0 0.00 0.13 0.08 82 1015.7
20260505115733 -17 0 0.0 0.0 0.00 0.13 0.08 83 1016.0
20260505115210 -17 0 0.0 0.0 0.00 0.13 0.08 81 1015.8
20260505114647 -17 0 0.0 0.0 0.00 0.13 0.08 82 1015.7
20260505114124 -17 0 0.0 0.0 0.00 0.13 0.08 82 1015.7
20260505113601 -17 0 0.0 0.0 0.00 0.13 0.08 83 1016.0
20260505113038 -17 0 0.0 0.0 0.00 0.13 0.08 82 1016.0
20260505112514 -17 0 0.0 0.0 0.00 0.13 0.08 82 1015.9
20260505111952 -17 0 0.0 0.0 0.00 0.13 0.08 83 1015.9
20260505111428 -17 0 0.0 0.0 0.00 0.13 0.08 82 1015.9
20260505110905 -17 0 0.0 0.0 0.00 0.13 0.08 82 1016.0
20260505110344 -17 0 0.0 0.0 0.00 0.13 0.08 81 1015.7
20260505102039 -17 0 0.0 0.0 0.00 0.15 0.08 81 1015.7
20260505101515 -17 0 0.0 0.0 0.00 0.15 0.08 80 1015.8
20260505100952 -17 0 0.0 0.0 0.00 0.15 0.08 79 1015.8
20260505100430 -17 0 0.0 0.0 0.00 0.15 0.08 80 1015.9
20260505095907 -17 0 0.0 0.0 0.00 0.15 0.08 80 1015.9
20260505095343 -17 0 0.0 0.0 0.00 0.15 0.08 80 1015.8
20260505094821 -17 0 0.0 0.0 0.00 0.15 0.08 79 1015.8
20260505094257 -17 0 0.0 0.0 0.00 0.15 0.08 79 1015.8
20260505093735 -17 0 0.0 0.0 0.00 0.15 0.08 78 1015.6
20260505093211 -17 0 0.0 0.0 0.00 0.15 0.08 78 1015.7
20260505092649 -17 0 0.0 0.0 0.00 0.15 0.08 78 1015.7
20260505092126 -17 0 0.0 0.0 0.00 0.15 0.08 78 1015.7
20260505091602 -17 0 0.0 3.2 0.00 0.15 0.08 78 1015.8
20260505091040 -17 0 0.0 3.2 0.00 0.15 0.08 79 1015.9
20260505090516 -17 175 0.0 3.2 0.00 0.15 0.08 79 1015.7
20260505085954 -17 0 0.0 0.0 0.00 0.15 0.08 79 1015.8
20260505085430 -17 0 0.0 0.0 0.03 0.15 0.08 79 1015.8
20260505084907 -17 0 0.0 1.6 0.03 0.15 0.08 79 1015.6
20260505084345 -17 0 0.0 1.6 0.03 0.15 0.08 80 1015.7
20260505083821 -17 179 0.0 1.6 0.03 0.15 0.08 79 1015.7
20260505083258 -17 305 0.0 0.0 0.03 0.15 0.08 79 1015.6
20260505082735 -17 0 0.0 3.2 0.03 0.15 0.08 77 1015.6
20260505082212 -17 326 0.0 3.2 0.03 0.15 0.08 79 1015.4
20260505081650 -17 350 0.0 4.8 0.03 0.15 0.08 80 1015.3
20260505081126 -17 19 0.0 4.8 0.03 0.15 0.08 79 1015.6
20260505080603 -17 140 0.0 4.8 0.03 0.15 0.08 77 1015.3
20260505080040 -17 159 0.0 4.8 0.03 0.15 0.08 78 1015.4
20260505075518 -17 0 0.0 4.8 0.00 0.15 0.08 78 1015.3
20260505074956 -17 260 0.0 4.8 0.00 0.15 0.05 78 1015.5
20260505074431 -17 238 1.6 1.6 0.00 0.15 0.05 78 1015.3
20260505073908 -17 266 0.0 1.6 0.00 0.15 0.05 76 1015.1
20260505073345 -17 294 0.0 4.8 0.00 0.15 0.05 77 1015.3
20260505072823 -17 295 0.0 4.8 0.00 0.15 0.05 77 1015.5
20260505072259 -17 0 0.0 1.6 0.03 0.15 0.05 77 1015.5
20260505071736 -17 155 0.0 1.6 0.03 0.15 0.05 77 1015.3
20260505071213 -17 347 0.0 1.6 0.03 0.15 0.05 78 1015.6
20260505070651 -17 0 0.0 1.6 0.03 0.15 0.05 77 1015.7
20260505070128 -17 189 0.0 4.8 0.03 0.15 0.05 78 1015.7
20260505065604 -17 170 0.0 4.8 0.03 0.15 0.05 79 1015.6
20260505065041 -17 183 0.0 4.8 0.03 0.15 0.05 79 1015.7
20260505064518 -17 165 0.0 4.8 0.05 0.13 0.05 79 1015.5
20260505063955 -17 107 0.0 0.0 0.05 0.13 0.05 77 1015.4
20260505063432 -17 0 0.0 6.4 0.05 0.13 0.05 80 1015.6
20260505062909 -17 0 0.0 6.4 0.05 0.13 0.05 81 1015.5
20260505062346 -17 148 0.0 6.4 0.03 0.13 0.05 81 1015.7
20260505061824 -17 0 0.0 0.0 0.03 0.13 0.03 79 1015.7
20260505061300 -17 0 0.0 0.0 0.03 0.13 0.03 82 1015.7
20260505060737 -17 0 0.0 0.0 0.03 0.13 0.03 81 1015.6
20260505060305 -17 0 0.0 0.0 0.03 0.13 0.03 81 1015.7
20260505060214 -17 0 0.0 0.0 0.03 0.13 0.03 81 1015.7
20260505055652 -17 0 0.0 0.0 0.03 0.13 0.03 82 1015.6
20260505055128 -17 0 0.0 6.4 0.03 0.13 0.03 81 1015.7
20260505054605 -17 0 0.0 6.4 0.00 0.10 0.03 81 1015.7
20260505054042 -17 322 0.0 6.4 0.00 0.10 0.00 81 1015.3
20260505053519 -17 189 0.0 4.8 0.00 0.10 0.00 82 1015.1
20260505052956 -17 102 0.0 1.6 0.00 0.10 0.00 81 1015.2
20260505052433 -17 0 0.0 3.2 0.00 0.10 0.00 83 1015.2
20260505051910 -17 0 0.0 3.2 0.00 0.10 0.00 84 1015.5
20260505051347 -17 43 0.0 3.2 0.00 0.10 0.00 84 1015.9
20260505050824 -17 0 0.0 0.0 0.00 0.10 0.00 84 1015.7
20260505050301 -17 0 0.0 8.0 0.00 0.10 0.00 85 1015.8
20260505041434 -17 0 0.0 0.0 0.00 0.10 0.00 82 1015.2
20260505040911 -17 0 0.0 0.0 0.00 0.10 0.00 82 1015.4
20260505040347 -17 0 0.0 0.0 0.00 0.10 0.00 82 1015.2
20260505035825 -17 0 0.0 1.6 0.00 0.10 0.00 80 1014.9
20260505035304 -17 82 0.0 1.6 0.00 0.10 0.00 78 1014.5
20260505034739 -17 0 0.0 0.0 0.00 0.10 0.00 73 1014.2
20260505034215 -17 0 0.0 0.0 0.00 0.10 0.00 75 1014.3
20260505033653 -17 0 0.0 4.8 0.00 0.10 0.00 77 1014.3
20260505033129 -17 183 0.0 4.8 0.00 0.10 0.00 75 1014.2
20260505032607 -17 191 0.0 3.2 0.00 0.10 0.00 79 1014.2
20260505032043 -17 0 0.0 3.2 0.00 0.10 0.00 79 1014.1
20260505031521 -17 170 0.0 3.2 0.00 0.10 0.00 75 1014.0
20260505030957 -17 0 1.6 1.6 0.00 0.10 0.00 75 1014.0
20260505030434 -17 0 0.0 3.2 0.00 0.10 0.00 73 1014.2
20260505025911 -17 16 0.0 3.2 0.00 0.10 0.00 74 1014.2
20260505025348 -17 170 0.0 3.2 0.00 0.10 0.00 71 1014.3
20260505024825 -17 133 0.0 1.6 0.00 0.10 0.00 69 1014.4
20260505024303 -17 205 0.0 1.6 0.00 0.10 0.00 69 1014.5
20260505023739 -17 0 0.0 3.2 0.00 0.10 0.00 68 1014.6
20260505023217 -17 210 0.0 3.2 0.00 0.10 0.00 63 1014.4
20260505022654 -17 218 0.0 3.2 0.00 0.10 0.00 66 1014.5
20260505022130 -17 0 0.0 1.6 0.00 0.10 0.00 64 1014.6
20260505021608 -17 266 0.0 3.2 0.00 0.10 0.00 61 1014.6
20260505021044 -17 0 0.0 3.2 0.00 0.10 0.00 64 1014.6
20260505020522 -17 0 0.0 3.2 0.00 0.10 0.00 64 1014.6
20260505015958 -17 222 0.0 4.8 0.00 0.10 0.00 65 1014.3
20260505015435 -17 340 0.0 4.8 0.00 0.10 0.00 63 1014.3
20260505014913 -17 242 0.0 4.8 0.00 0.10 0.00 64 1014.6
20260505014350 -17 0 0.0 3.2 0.00 0.10 0.00 64 1014.6
20260505013826 -17 137 1.6 8.0 0.00 0.10 0.00 62 1014.8
20260505013303 -17 173 0.0 8.0 0.00 0.10 0.00 63 1014.8
20260505012740 -17 142 0.0 6.4 0.00 0.10 0.00 64 1014.9
20260505012217 -17 186 0.0 6.4 0.00 0.10 0.00 64 1014.6
20260505011654 -17 137 0.0 6.4 0.00 0.10 0.00 63 1014.4
20260505011131 -17 235 0.0 6.4 0.00 0.10 0.00 62 1014.6
20260505010609 -17 189 0.0 6.4 0.00 0.10 0.00 63 1014.9
20260505010046 -17 149 1.6 4.8 0.00 0.10 0.00 64 1014.9
20260505005522 -17 355 0.0 4.8 0.00 0.10 0.00 62 1014.6
20260505005000 -17 134 0.0 4.8 0.00 0.10 0.00 61 1014.9
20260505004436 -17 173 0.0 6.4 0.00 0.10 0.00 61 1014.9
20260505003913 -17 63 0.0 6.4 0.00 0.10 0.00 62 1014.9
20260505003350 -17 196 0.0 6.4 0.00 0.10 0.00 61 1015.0
20260505002827 -17 46 0.0 8.0 0.00 0.10 0.00 61 1015.0
20260505002304 -17 75 0.0 8.0 0.00 0.10 0.00 62 1015.0
20260505001742 -17 191 1.6 8.0 0.00 0.10 0.00 61 1015.3
20260505001218 -17 82 3.2 8.0 0.00 0.10 0.00 62 1015.3
20260505000655 -17 33 0.0 6.4 0.00 0.10 0.00 62 1015.4
20260505000132 -17 64 0.0 4.8 0.00 0.10 0.00 61 1015.4
20260504235609 -17 236 1.6 9.7 0.00 0.10 0.00 61 1015.3
20260504235046 -17 46 0.0 9.7 0.00 0.10 0.00 60 1015.2
20260504234523 -17 161 1.6 9.7 0.00 0.10 0.00 60 1015.2
20260504234000 -17 210 0.0 4.8 0.00 0.10 0.10 59 1015.2
20260504233437 -17 79 0.0 4.8 0.00 0.10 0.10 58 1015.1
20260504232915 -17 144 1.6 4.8 0.00 0.10 0.10 58 1015.3
20260504232351 -17 119 0.0 4.8 0.00 0.10 0.10 59 1015.3
20260504231829 -17 190 0.0 3.2 0.00 0.10 0.10 60 1014.9
20260504231305 -17 155 1.6 6.4 0.00 0.10 0.10 60 1015.1
20260504230742 -17 344 0.0 6.4 0.00 0.10 0.10 62 1015.4
20260504230219 -17 190 1.6 4.8 0.00 0.10 0.10 63 1015.4
20260504225656 -17 327 1.6 14.5 0.00 0.10 0.10 62 1015.4
20260504225135 -17 327 1.6 14.5 0.00 0.10 0.10 60 1015.1
20260504224610 -17 177 1.6 14.5 0.00 0.10 0.10 62 1015.2
20260504224047 -17 173 1.6 9.7 0.00 0.10 0.10 63 1015.4
20260504223524 -17 233 1.6 9.7 0.00 0.10 0.10 62 1015.4
20260504223001 -17 183 4.8 9.7 0.00 0.10 0.10 61 1015.2
20260504222438 -17 347 1.6 9.7 0.00 0.10 0.10 63 1015.3
20260504221915 -17 78 3.2 9.7 0.00 0.10 0.10 62 1015.4
20260504221352 -17 187 1.6 9.7 0.00 0.10 0.10 61 1015.6
20260504220829 -17 201 0.0 11.3 0.00 0.10 0.10 62 1015.5
20260504220306 -17 173 1.6 11.3 0.00 0.10 0.10 60 1015.3
20260504215743 -17 197 1.6 6.4 0.00 0.10 0.10 63 1015.4
20260504215220 -17 42 3.2 9.7 0.00 0.10 0.10 65 1015.5
20260504214658 -17 152 1.6 9.7 0.00 0.10 0.10 64 1015.5